Powrót do katalogu

CZ-3B DEB

AktywnyGTO
NORAD 40164·DEBRIS·🇨🇳 China

Wystrzelony Sep 4, 2010 z Xichang Satellite Launch Center

Loading…

TLE

Starzejące sięSource: Space-Track

Epoka: Sep 14, 2026, 12:31 UTC

1 40164U 10042R   26257.52188850  .00000027  00000-0  00000-0 0  9990
2 40164  26.1171 213.8995 7329246  58.6981  18.8152  1.89873074 88965

Śledź CZ-3B DEB w czasie rzeczywistym z AllMySat

Download on the App Store